Location: Ladrillo (historical)
(32.8195°N, 117.2231°W)
Time: 03:02:39
(UTC+00:00)

ADEOS Rocket - Pass Details

Date: 29 October 2020
Orbit: 859 x 1306 km, 98.7° (Epoch: 26 November)

Event Time Altitude Azimuth Distance (km) Brightness Sun altitude
Rises 12:41:11 0° 189° (S) 3,464 5.9 -18.1°
Reaches altitude 10° 12:43:47 10° 198° (SSW) 2,504 5.0 -17.5°
Maximum altitude 12:48:42 34° 262° (W) 1,394 3.3 -16.5°
Drops below altitude 10° 12:53:40 10° 326° (NNW) 2,519 4.8 -15.5°
Sets 12:56:19 0° 336° (NNW) 3,489 5.6 -14.9°
